Regional Weather Roundup
Issued by NWS

Home | Current Version | Previous Version | Graphics & Text | Print | Product List | Glossary On
Versions: 1 2 3 4 5 6 7 8 9 10 11 12 13 14 15 16 17 18 19 20 21 22 23 24 25 26 27 28 29 30 31 32 33 34 35 36 37 38 39 40 41 42 43 44 45 46 47 48 49 50
000
ASUS43 KLSX 311359
RWRMO

WEATHER SUMMARY FOR MISSOURI
NATIONAL WEATHER SERVICE SPRINGFIELD MO
900 AM CDT FRI JUL 31 2015

NOTE: "FAIR" INDICATES FEW OR NO CLOUDS BELOW 12,000 FEET WITH NO
       SIGNIFICANT WEATHER AND/OR OBSTRUCTIONS TO VISIBILITY.
       CURRENT SKY AND/OR WEATHER CONDITIONS ARE NOT AVAILABLE FOR
       CHILLICOTHE AND FARMINGTON.

MOZ001>031-035>038-043-044-053-054-311500-
...NORTHERN AND WESTERN MISSOURI...

CITY           SKY/WX    TMP DP  RH WIND       PRES   REMARKS
KANSAS CTY INT MOSUNNY   73  65  75 SW5       30.19R
KANSAS C DTWN  SUNNY     76  66  71 CALM      30.18S
LEE`S SUMMIT   SUNNY     76  66  71 CALM      30.19S
ST JOSEPH      SUNNY     72  67  84 S6        30.17F
CHILLICOTHE      N/A     77  66  68 W5        30.17S
KIRKSVILLE     LGT RAIN  73  65  75 W8        30.16S

$$
MOZ066>068-077>081-088>096-101>105-311500-
...SOUTHWEST MISSOURI...

CITY           SKY/WX    TMP DP  RH WIND       PRES   REMARKS
SPRINGFIELD    MOSUNNY   76  64  66 S5        30.18F
JOPLIN         SUNNY     79  66  64 SE6       30.18F

$$
MOZ032>034-039>042-045>050-055>058-069>072-311500-
...CENTRAL MISSOURI...

CITY           SKY/WX    TMP DP  RH WIND       PRES   REMARKS
COLUMBIA       SUNNY     78  68  71 W6        30.17S
JEFFERSON CITY SUNNY     75  67  76 N3        30.16F
ROLLA          SUNNY     76  65  68 N5        30.17S
SEDALIA        SUNNY     79  65  62 SW5       30.18F
OSAGE BEACH    SUNNY     72  66  83 CALM      30.19R

$$
MOZ051-052-059>065-311500-
...EAST CENTRAL MISSOURI...

CITY           SKY/WX    TMP DP  RH WIND       PRES   REMARKS
ST LOUIS INTL  MOSUNNY   82  65  56 W7        30.14S
SPIRIT OF STL  SUNNY     77  69  76 W3        30.14R
ST CHARLES     SUNNY     79  66  64 W5        30.13S

$$
MOZ072>076-082>087-097>100-106>115-311500-
...SOUTH CENTRAL AND SOUTHEAST MISSOURI...

CITY           SKY/WX    TMP DP  RH WIND       PRES   REMARKS
CAPE GIRARDEAU SUNNY     79  65  62 NW7       30.12S
FARMINGTON     SUNNY     77  64  65 N7        30.20S
POPLAR BLUFF   SUNNY     78  67  68 N8        30.12S
WEST PLAINS    SUNNY     78  64  61 N5        30.20R

$$


USA.gov is the U.S. government's official web portal to all federal, state and local government web resources and services.